Reading, PA

1:47 AM EDT on October 20, 2017 (GMT -0400)
Reading Regional-Spaatz

Weather History for KRDG - November, 2013

Change the Weather History Date:

Monday, November 11, 2013

  Actual Average Record
Temperature  
Mean Temperature 44 °F 46 °F  
Max Temperature 52 °F 56 °F 73 °F (1949)
Min Temperature 35 °F 36 °F 18 °F (1973)
Degree Days  
Heating Degree Days 21 19  
Month to date heating degree days 193 194  
Since 1 July heating degree days 558 632  
Cooling Degree Days 0 0  
Month to date cooling degree days 0 0  
Year to date cooling degree days 1124 896  
Moisture  
Dew Point 30 °F    
Average Humidity 53    
Maximum Humidity 64    
Minimum Humidity 41    
Precipitation  
Precipitation 0.00 in 0.09 in 1.64 in (1990)
Month to date precipitation 0.38 1.21  
Year to date precipitation 35.60 37.73  
Sea Level Pressure  
Sea Level Pressure 30.14 in    
Wind  
Wind Speed 7 mph (WSW)    
Max Wind Speed 16 mph    
Max Gust Speed 22 mph    
Visibility 10 miles    
Events      
T = Trace of Precipitation, MM = Missing Value Source: NWS Daily Summary

Daily Weather History Graph

Daily Weather History Graph

Search for Another Location

Airport or City:

Trip Planner

Search our weather history database for the weather conditions in past years. The results will help you decide how hot, cold, wet, or windy it might be!

Date:

Astronomy

Nov. 11, 2013 Rise Set
Actual Time 6:45 AM EST 4:49 PM EST
Civil Twilight 6:16 AM EST 5:18 PM EST
Nautical Twilight 5:43 AM EST 5:51 PM EST
Astronomical Twilight 5:11 AM EST 6:23 PM EST
Moon 1:30 PM EST (11/11) 12:27 AM EST (11/11)
Length of Visible Light 11h 02m
Length of Day
10h 04m
Waxing Gibbous, 66% of the Moon is Illuminated
Nov 11
Waxing Gibbous
Nov 17
Full
Nov 25
Last Quarter
Dec 2
New
Dec 9
First Quarter

Hourly Weather History & Observations

Time (EST) Temp. Windchill Dew Point Humidity Pressure Visibility Wind Dir Wind Speed Gust Speed Precip Events Conditions
12:54 AM 43.0 °F 38.2 °F 27.0 °F 53% 30.18 in 10.0 mi WNW 8.1 mph - N/A   Mostly Cloudy
1:54 AM 45.0 °F 39.3 °F 26.1 °F 48% 30.21 in 10.0 mi WNW 11.5 mph - N/A   Overcast
2:54 AM 43.0 °F 38.2 °F 27.0 °F 53% 30.22 in 10.0 mi WNW 8.1 mph - N/A   Partly Cloudy
3:54 AM 39.9 °F 37.8 °F 26.1 °F 58% 30.22 in 10.0 mi West 3.5 mph - N/A   Clear
4:54 AM 39.0 °F 36.8 °F 27.0 °F 62% 30.22 in 10.0 mi SSW 3.5 mph - N/A   Clear
5:54 AM 37.0 °F 34.5 °F 27.0 °F 67% 30.24 in 10.0 mi West 3.5 mph - N/A   Clear
6:54 AM 39.0 °F 36.8 °F 27.0 °F 62% 30.26 in 10.0 mi West 3.5 mph - N/A   Clear
7:54 AM 42.1 °F - 28.9 °F 60% 30.26 in 10.0 mi Calm Calm - N/A   Clear
8:54 AM 46.9 °F - 30.0 °F 52% 30.25 in 10.0 mi West 8.1 mph - N/A   Clear
9:54 AM 48.9 °F - 30.9 °F 50% 30.24 in 10.0 mi West 6.9 mph - N/A   Mostly Cloudy
10:54 AM 50.0 °F - 30.9 °F 48% 30.23 in 10.0 mi Variable 4.6 mph - N/A   Partly Cloudy
11:54 AM 50.0 °F - 30.9 °F 48% 30.20 in 10.0 mi WSW 6.9 mph - N/A   Mostly Cloudy
12:54 PM 51.1 °F - 32.0 °F 48% 30.17 in 10.0 mi SSW 11.5 mph - N/A   Overcast
1:54 PM 51.1 °F - 30.0 °F 44% 30.14 in 10.0 mi SW 11.5 mph - N/A   Overcast
2:54 PM 51.1 °F - 30.0 °F 44% 30.11 in 10.0 mi SW 8.1 mph - N/A   Overcast
3:54 PM 52.0 °F - 30.0 °F 43% 30.10 in 10.0 mi WSW 8.1 mph - N/A   Overcast
4:54 PM 50.0 °F - 30.0 °F 46% 30.07 in 10.0 mi SSW 6.9 mph - N/A   Overcast
5:54 PM 51.1 °F - 28.9 °F 43% 30.07 in 10.0 mi SSW 8.1 mph - N/A   Overcast
6:54 PM 50.0 °F - 30.9 °F 48% 30.04 in 10.0 mi South 9.2 mph - N/A   Overcast
7:54 PM 50.0 °F - 33.1 °F 52% 30.03 in 10.0 mi SW 11.5 mph - N/A   Overcast
8:54 PM 50.0 °F - 34.0 °F 54% 30.02 in 10.0 mi SSW 4.6 mph - N/A   Overcast
9:54 PM 51.1 °F - 32.0 °F 48% 30.01 in 10.0 mi WSW 3.5 mph - N/A   Overcast
10:54 PM 51.1 °F - 30.0 °F 44% 29.99 in 10.0 mi SW 8.1 mph - N/A   Overcast
11:54 PM 51.1 °F - 30.0 °F 44% 30.00 in 10.0 mi SW 5.8 mph - N/A   Overcast